This demonstration page uses our WeatherBlox Daily Observations layout. Learn more.

Left ArrowRight Arrow

38.20091, -84.87328

Hourly Observations for January 6, 2016

Temp ( °F °C ) Dew Point ( °F °C ) Humidity (%) Winds ( mph kmh ) Pressure ( in mb ) Visibility ( mi km ) Precip ( " mm )
12:53 am 00:53 Clear 20 -6.7 13 -10.6 74 74 Calm 30.45 1031 10 16 0.00 0.00
1:53 am 01:53 Clear 19 -7.2 13 -10.6 77 77 Calm 30.44 1031 10 16 0.00 0.00
2:53 am 02:53 Clear 18 -7.8 12 -11.1 77 77 Calm 30.45 1031 10 16 0.00 0.00
3:53 am 03:53 Clear 18 -7.8 13 -10.6 81 81 Calm 30.45 1031 10 16 0.00 0.00
4:53 am 04:53 Clear 17 -8.3 13 -10.6 84 84 Calm 30.45 1031 10 16 0.00 0.00
5:53 am 05:53 Clear 17 -8.3 12 -11.1 80 80 Calm 30.46 1031 10 16 0.00 0.00
6:53 am 06:53 Clear 17 -8.3 12 -11.1 80 80 Calm 30.47 1032 10 16 0.00 0.00
7:53 am 07:53 Clear 18 -7.8 13 -10.6 81 81 Calm 30.48 1032 10 16 0.00 0.00
8:53 am 08:53 Sunny 24 -4.4 18 -7.8 77 77 SSE 3 6 30.48 1032 10 16 0.00 0.00
9:53 am 09:53 Sunny 29 -1.7 20 -6.7 69 69 Calm 30.48 1032 10 16 0.00 0.00
10:53 am 10:53 Sunny 36 2.2 20 -6.7 52 52 S 6 9 30.48 1032 10 16 0.00 0.00
11:53 am 11:53 Sunny 40 4.4 16 -8.9 38 38 SSW 8 13 30.45 1031 10 16 0.00 0.00
12:53 pm 12:53 Sunny 42 5.6 14 -10 32 32 SSW 8 13 30.40 1030 10 16 0.00 0.00
1:53 pm 13:53 Sunny 43 6.1 12 -11.1 28 28 SSW 6 9 30.37 1028 10 16 0.00 0.00
2:53 pm 14:53 Sunny 44 6.7 11 -11.7 26 26 Calm 30.34 1027 10 16 0.00 0.00
3:53 pm 15:53 Sunny 44 6.7 11 -11.7 26 26 E 3 6 30.31 1026 10 16 0.00 0.00
4:53 pm 16:53 Sunny 41 5 14 -10 33 33 ESE 7 11 30.30 1026 10 16 0.00 0.00
5:53 pm 17:53 Clear 40 4.4 14 -10 35 35 SE 3 6 30.29 1026 10 16 0.00 0.00
6:53 pm 18:53 Clear 32 0 17 -8.3 54 54 Calm 30.30 1026 10 16 0.00 0.00
7:53 pm 19:53 Clear 30 -1.1 17 -8.3 58 58 Calm 30.30 1026 10 16 0.00 0.00
8:53 pm 20:53 Clear 31 -0.6 18 -7.8 59 59 E 5 7 30.29 1026 10 16 0.00 0.00
9:53 pm 21:53 Clear 27 -2.8 18 -7.8 69 69 Calm 30.29 1026 10 16 0.00 0.00
10:53 pm 22:53 Clear 26 -3.3 17 -8.3 69 69 Calm 30.27 1025 10 16 0.00 0.00
11:53 pm 23:53 Clear 23 -5 17 -8.3 78 78 Calm 30.27 1025 10 16 0.00 0.00

Powered by AerisWeather